Volver al catálogo

HAI YANG 2-05

ActivoMeteoSSO
NORAD 69737·PAYLOAD·🇨🇳 China
Este nombre de satélite aún no ha sido confirmado por fuentes oficiales.

Lanzado Jul 1, 2026 desde Jiuquan Satellite Launch Center

Loading…

Próximos Pases (próximas 24 horas)

TLE

ActualizadoSource: CelesTrak SupGP

Época: Sep 14, 2026, 00:00 UTC

1 69737C 26149A   26257.00000000 -.00000051  00000+0 -49469-4 0  2576
2 69737  99.3472 263.1096 0000468  70.5643 193.9332 13.79299964    18

Sigue HAI YANG 2-05 en tiempo real con AllMySat

Download on the App Store